Date String (YYYY-MM-DD hh:mm:ss) UTC,Instrument flags,absolute air pressure of the measurement (hPa),sample flow rate (lpm),inlet stack bypass flow (lpm),air temperature of the measurement (°C),ambient temperature measured by the external sensor (°C),aerosol sample conditioner tube jacket temperature (°C),OPC LED temperature (°C),internal box temperature (°C),relative humidity of the measurement (%),span deviation,mass concentration of particles derived from Lorenz-Mie calculation of OPC scattering (μg/m³),mass concentration of particles derived from Lorenz-Mie calculation of OPC scattering (μg/m³),mass concentration of particles derived from Lorenz-Mie calculation of OPC scattering (μg/m³)
DateTimeUTC,F1_M11,P_M11,Q1_M11,Q2_M11,T1_M11,T2_M11,T3_M11,T4_M11,T5_M11,U1_M11,ZSPAN_M11,X2_M11,X0_M11,X1_M11
2024-04-24 04:00:00,SystemResetWarning,0832.1,5.00,000.00,026.2,025.6,000.0,034.6,028.1,023.2,0000.0,0004.31,0009.29,0003.21
2024-04-24 04:01:00,SystemResetWarning,0832.2,5.01,000.00,026.2,025.6,000.0,034.6,028.1,022.9,0000.0,0004.26,0009.07,0003.20
2024-04-24 04:02:00,SystemResetWarning,0832.2,5.00,000.00,026.2,025.6,000.0,034.6,028.1,023.2,0000.0,0004.27,0009.11,0003.20
2024-04-24 04:03:00,SystemResetWarning,0832.2,5.00,000.00,026.2,025.7,000.0,034.6,028.1,022.7,0000.0,0004.25,0008.97,0003.21
2024-04-24 04:04:00,SystemResetWarning,0832.2,5.00,000.00,026.2,025.7,000.0,034.6,028.1,022.6,0000.0,0004.26,0008.98,0003.21
2024-04-24 04:05:00,SystemResetWarning,0832.2,5.00,000.00,026.3,025.7,000.0,034.6,028.1,022.5,0000.0,0004.29,0009.16,0003.21
2024-04-24 04:06:00,SystemResetWarning,0832.2,4.99,000.00,026.3,025.7,000.0,034.7,028.2,022.4,0000.0,0004.26,0009.16,0003.21
2024-04-24 04:07:00,SystemResetWarning,0832.2,5.00,000.00,026.3,025.7,000.0,034.7,028.2,022.4,0000.0,0004.17,0009.08,0003.19
2024-04-24 04:08:00,SystemResetWarning,0832.3,4.99,000.00,026.3,025.7,000.0,034.7,028.2,022.1,0000.0,0004.11,0008.70,0003.19
2024-04-24 04:09:00,SystemResetWarning,0832.3,5.00,000.00,026.3,025.7,000.0,034.7,028.2,021.9,0000.0,0004.11,0008.82,0003.18
2024-04-24 04:10:00,SystemResetWarning,0832.3,5.01,000.00,026.3,025.7,000.0,034.7,028.2,022.0,0000.0,0004.08,0009.02,0003.17
2024-04-24 04:11:00,SystemResetWarning,0832.3,5.01,000.00,026.3,025.7,000.0,034.7,028.2,022.1,0000.0,0004.08,0009.06,0003.16
2024-04-24 04:12:00,SystemResetWarning,0832.3,5.00,000.00,026.3,025.7,000.0,034.7,028.2,022.1,0000.0,0004.10,0009.49,0003.16
2024-04-24 04:13:00,SystemResetWarning,0832.3,4.99,000.00,026.3,025.7,000.0,034.7,028.2,022.1,0000.0,0004.09,0009.85,0003.14
2024-04-24 04:14:00,SystemResetWarning,0832.3,4.99,000.00,026.4,025.7,000.0,034.8,028.2,022.0,0000.0,0004.06,0009.79,0003.13
2024-04-24 04:15:00,SystemResetWarning,0832.4,5.00,000.00,026.4,025.7,000.0,034.8,028.2,021.9,0000.0,0004.09,0009.88,0003.12
2024-04-24 04:16:00,SystemResetWarning,0832.4,5.01,000.00,026.4,025.7,000.0,034.8,028.2,021.8,0000.0,0004.05,0009.73,0003.12
2024-04-24 04:17:00,SystemResetWarning,0832.4,5.01,000.00,026.4,025.7,000.0,034.8,028.2,021.8,0000.0,0004.04,0009.64,0003.12
2024-04-24 04:18:00,SystemResetWarning,0832.4,5.00,000.00,026.4,025.8,000.0,034.8,028.2,021.9,0000.0,0004.11,0009.66,0003.12
2024-04-24 04:19:00,SystemResetWarning,0832.3,4.99,000.00,026.4,025.8,000.0,034.8,028.3,022.6,0000.0,0004.13,0010.01,0003.10
2024-04-24 04:20:00,SystemResetWarning,0832.2,5.00,000.00,026.4,025.8,000.0,034.8,028.3,024.1,0000.0,0004.20,0010.11,0003.12
2024-04-24 04:21:00,SystemResetWarning,0832.2,5.01,000.00,026.4,025.8,000.0,034.8,028.3,024.6,0000.0,0004.25,0010.64,0003.13
2024-04-24 04:22:00,SystemResetWarning,0832.1,5.01,000.00,026.4,025.8,000.0,034.8,028.3,025.0,0000.0,0004.24,0010.55,0003.15
2024-04-24 04:23:00,SystemResetWarning,0832.1,5.00,000.00,026.4,025.8,000.0,034.9,028.3,024.7,0000.0,0004.22,0010.21,0003.17
2024-04-24 04:24:00,SystemResetWarning,0832.1,5.00,000.00,026.4,025.8,000.0,034.9,028.3,024.4,0000.0,0004.24,0009.91,0003.19
2024-04-24 04:25:00,SystemResetWarning,0832.0,4.99,000.00,026.4,025.8,000.0,034.9,028.3,023.4,0000.0,0004.29,0010.14,0003.21
2024-04-24 04:26:00,SystemResetWarning,0832.0,4.99,000.00,026.4,025.8,000.0,034.9,028.3,023.0,0000.0,0004.25,0010.07,0003.21
2024-04-24 04:27:00,SystemResetWarning,0832.0,5.01,000.00,026.5,025.8,000.0,034.9,028.3,025.1,0000.0,0004.27,0010.08,0003.22
2024-04-24 04:28:00,SystemResetWarning,0832.0,5.01,000.00,026.5,025.8,000.0,034.9,028.4,025.2,0000.0,0004.30,0010.21,0003.23
2024-04-24 04:29:00,SystemResetWarning,0832.0,5.01,000.00,026.5,025.9,000.0,034.9,028.4,023.1,0000.0,0004.33,0010.26,0003.24
2024-04-24 04:30:00,SystemResetWarning,0832.0,5.00,000.00,026.5,025.9,000.0,034.9,028.4,022.3,0000.0,0004.34,0009.99,0003.25
2024-04-24 04:31:00,SystemResetWarning,0832.0,4.99,000.00,026.5,025.9,000.0,034.9,028.4,022.1,0000.0,0004.29,0009.60,0003.24
2024-04-24 04:32:00,SystemResetWarning,0832.0,4.99,000.00,026.5,025.9,000.0,034.9,028.4,021.8,0000.0,0004.25,0008.89,0003.23
2024-04-24 04:33:00,SystemResetWarning,0832.0,5.00,000.00,026.5,025.9,000.0,035.0,028.3,021.8,0000.0,0004.24,0008.87,0003.22
2024-04-24 04:34:00,SystemResetWarning,0832.0,5.00,000.00,026.3,024.1,000.0,035.0,027.3,022.2,0000.0,0004.26,0008.83,0003.21
2024-04-24 04:35:00,SystemResetWarning,0832.0,5.01,000.00,025.8,022.4,000.0,035.0,026.3,023.0,0000.0,0004.22,0008.64,0003.19
2024-04-24 04:36:00,SystemResetWarning,0832.0,5.01,000.00,025.5,022.3,000.0,034.8,026.2,023.5,0000.0,0004.18,0008.82,0003.16
2024-04-24 04:37:00,SystemResetWarning,0832.0,5.00,000.00,025.4,022.7,000.0,034.6,026.5,023.2,0000.0,0004.22,0009.35,0003.16
2024-04-24 04:38:00,SystemResetWarning,0832.0,5.00,000.00,025.4,023.1,000.0,034.5,026.7,022.8,0000.0,0004.22,0009.35,0003.16
2024-04-24 04:39:00,SystemResetWarning,0832.0,5.00,000.00,025.4,023.4,000.0,034.4,027.0,022.9,0000.0,0004.20,0009.24,0003.14
2024-04-24 04:40:00,SystemResetWarning,0832.0,5.00,000.00,025.4,023.7,000.0,034.4,027.1,022.8,0000.0,0004.18,0009.28,0003.13
2024-04-24 04:41:00,SystemResetWarning,0832.0,5.00,000.00,025.5,024.0,000.0,034.3,027.2,022.4,0000.0,0004.18,0009.35,0003.13
2024-04-24 04:42:00,SystemResetWarning,0832.0,5.00,000.00,025.5,024.2,000.0,034.3,027.3,022.1,0000.0,0004.17,0009.27,0003.11
2024-04-24 04:43:00,SystemResetWarning,0832.0,5.00,000.00,025.5,024.4,000.0,034.2,027.4,022.1,0000.0,0004.15,0009.16,0003.11
2024-04-24 04:44:00,SystemResetWarning,0832.0,4.99,000.00,025.6,024.5,000.0,034.2,027.4,022.2,0000.0,0004.18,0009.31,0003.11
2024-04-24 04:45:00,SystemResetWarning,0832.1,4.99,000.00,025.6,024.7,000.0,034.2,027.5,021.8,0000.0,0004.22,0009.53,0003.10
2024-04-24 04:46:00,SystemResetWarning,0832.0,5.00,000.00,025.6,024.8,000.0,034.2,027.5,021.7,0000.0,0004.29,0009.92,0003.11
2024-04-24 04:47:00,SystemResetWarning,0832.0,5.01,000.00,025.7,024.9,000.0,034.2,027.6,022.3,0000.0,0004.30,0010.05,0003.11
2024-04-24 04:48:00,SystemResetWarning,0831.9,5.01,000.00,025.7,025.0,000.0,034.2,027.6,023.7,0000.0,0004.29,0009.58,0003.10
2024-04-24 04:49:00,SystemResetWarning,0831.9,5.01,000.00,025.7,025.0,000.0,034.2,027.6,024.9,0000.0,0004.25,0009.63,0003.11
2024-04-24 04:50:00,SystemResetWarning,0831.9,5.00,000.00,025.8,025.1,000.0,034.2,027.7,025.3,0000.0,0004.26,0009.65,0003.13
2024-04-24 04:51:00,SystemResetWarning,0832.0,4.99,000.00,025.8,025.1,000.0,034.2,027.7,025.7,0000.0,0004.24,0009.68,0003.14
2024-04-24 04:52:00,SystemResetWarning,0832.0,4.98,000.00,025.8,025.2,000.0,034.2,027.7,025.2,0000.0,0004.26,0009.83,0003.16
2024-04-24 04:53:00,SystemResetWarning,0832.0,4.99,000.00,025.8,025.2,000.0,034.3,027.7,025.0,0000.0,0004.26,0009.78,0003.19
2024-04-24 04:54:00,SystemResetWarning,0831.7,5.01,000.00,025.9,025.3,000.0,034.3,027.8,024.8,0000.0,0004.31,0009.99,0003.20
2024-04-24 04:55:00,SystemResetWarning,0831.7,5.01,000.00,025.9,025.3,000.0,034.3,027.8,024.7,0000.0,0004.32,0010.25,0003.21
2024-04-24 04:56:00,SystemResetWarning,0831.6,5.01,000.00,025.9,025.3,000.0,034.3,027.8,025.0,0000.0,0004.28,0010.01,0003.23
2024-04-24 04:57:00,SystemResetWarning,0831.6,5.00,000.00,025.9,025.4,000.0,034.3,027.8,024.9,0000.0,0004.24,0010.05,0003.25
2024-04-24 04:58:00,SystemResetWarning,0831.6,5.00,000.00,026.0,025.4,000.0,034.3,027.9,024.6,0000.0,0004.30,0010.17,0003.27
2024-04-24 04:59:00,SystemResetWarning,0831.6,4.99,000.00,026.0,025.4,000.0,034.3,027.9,024.5,0000.0,0004.33,0010.72,0003.28
